Location: Newark
(44.3681°N, 100.3364°W)
Time: 02:06:53
(UTC+00:00)

SR - Pass Details

Date: 04 March 2020
Orbit: 578 x 878 km, 66.7° (Epoch: 06 April)

Event Time Altitude Azimuth Distance (km) Brightness Sun altitude
Rises 02:31:47 0° 334° (NNW) 3,309 ? -21.9°
Reaches altitude 10° 02:34:59 10° 352° (N) 2,318 ? -22.5°
Enters shadow 02:38:20 19° 31° (NNE) 1,705 ? -23.1°
